Home   Weather   Lanchow   Past weeks

Flag for China Past Weather in Lanchow, Gansu, China — Yesterday and Last 2 Weeks

Now
72 °F

Passing clouds.


Feels Like: 77 °F
Forecast: 65 / 82 °F
Wind: 6 mph from Northeast

Location: Lanzhou / Zhongchuan

Current Time: Jul 21, 2017 at 8:55:20 am

Latest Report: Jul 21, 2017 at 8:00 am


Visibility: N/A

Pressure: 30.01 "Hg (25.14 "Hg at 1531m altitude)

Humidity: 47%

Dew Point: 50 °F

Location of LanchowLocation

Past Weather in Lanchow — Graph

°F

Lanchow Temperature Yesterday

Maximum temperature yesterday: 88 °F (at 4:00 pm)
Minimum temperature yesterday: 70 °F (at 5:00 am)
Average temperature yesterday: 77 °F

High & Low Weather Summary for the Past Weeks

 TemperatureHumidityPressure
High93 °F (Jul 13, 5:00 pm)94% (Jul 6, 7:00 am)30.09 "Hg (Jul 6, 7:00 am)
Low50 °F (Jul 9, 6:00 am)12% (Jul 11, 4:00 pm)29.77 "Hg (Jul 13, 4:00 pm)
Average74 °F44%29.96 "Hg
* Reported Jul 6 7:00 am — Jul 21 7:00 am, Lanchow. Weather by CustomWeather, © 2017

Note: Actual official high and low records may vary slightly from our data, if they occured in-between our weather recording intervals... More about our weather records

Advertising

Lanchow Weather History for the Previous 24 Hours

Scroll right to see more
 ConditionsComfort  
Time TempWeatherWind HumidityBarometerVisibility
7:00 am
Fri, Jul 21
72 °FPassing clouds.3 mph47%29.98 "HgN/A
6:00 am70 °FPassing clouds.1 mph50%29.98 "HgN/A
5:00 am72 °FPassing clouds.1 mph47%29.98 "HgN/A
4:00 am73 °FPassing clouds.3 mph44%29.98 "HgN/A
3:00 am73 °FPassing clouds.3 mph44%29.98 "HgN/A
2:00 am73 °FPassing clouds.1 mph44%29.98 "HgN/A
1:00 am73 °FPassing clouds.1 mph44%29.98 "HgN/A
12:00 am75 °FPassing clouds.6 mph41%30.01 "HgN/A
11:00 pm
Thu, Jul 20
77 °FPassing clouds.8 mph39%30.01 "HgN/A
10:00 pm77 °FPassing clouds.10 mph39%30.01 "HgN/A
9:00 pm79 °FScattered clouds.13 mph37%29.98 "HgN/A
8:00 pm81 °FScattered clouds.13 mph37%29.95 "HgN/A
7:00 pm82 °FScattered clouds.13 mph35%29.92 "HgN/A
6:00 pm86 °FScattered clouds.15 mph31%29.92 "HgN/A
5:00 pm88 °FScattered clouds.10 mph31%29.92 "HgN/A
4:00 pm88 °FPassing clouds.6 mph31%29.92 "HgN/A
3:00 pm86 °FPassing clouds.8 mph35%29.95 "HgN/A
2:00 pm84 °FPassing clouds.6 mph35%29.95 "HgN/A
1:00 pm81 °FPassing clouds.6 mph39%29.98 "HgN/A
12:00 pm79 °FSunny.3 mph42%30.01 "Hg10 mi
11:00 am77 °FPartly sunny.6 mph44%30.01 "HgN/A
10:00 am75 °FPartly sunny.8 mph47%30.04 "HgN/A
9:00 am72 °FPartly sunny.6 mph53%30.04 "HgN/A
8:00 am72 °FPassing clouds.8 mph53%30.01 "HgN/A
Weather by CustomWeather, © 2017

See weather overviewHow to use our weather pages